When you browse on this site, cookies collect data to enhance your experience and personalize the content and advertising you see.
Visit our Privacy Policy to learn more. By continuing to use the site, you agree to this use of cookies and data.
  • In United Kingdom
  • List of Countries
  • For 7 days
  • Water Temperature
  • Satellite Maps
  • Weather Map
  • Weather Widgets
  • user-avatar
    Login

    Hourly Weather Ayrilish

    Today, 19 March, Tuesday

    Time Temperature Precipitation Wind Pressure Humidity
    00:00 +18°C° 0 mm 2 mps 712 mmHg 27%
    01:00 +18°C° 0 mm 2 mps 712 mmHg 27%
    02:00 +18°C° 0 mm 2 mps 711 mmHg 27%
    03:00 +17°C° 0 mm 2 mps 712 mmHg 28%
    04:00 +17°C° 0 mm 2 mps 712 mmHg 28%
    05:00 +16°C° 0 mm 1 mps 712 mmHg 29%
    06:00 +16°C° 0 mm 2 mps 712 mmHg 35%
    07:00 +16°C° 0 mm 2 mps 713 mmHg 40%
    08:00 +16°C° 0 mm 3 mps 713 mmHg 46%
    09:00 +17°C° 0 mm 2 mps 713 mmHg 45%
    10:00 +18°C° 0 mm 2 mps 713 mmHg 44%
    11:00 +20°C° 0 mm 2 mps 714 mmHg 43%
    12:00 +20°C° 0 mm 3 mps 714 mmHg 41%
    13:00 +21°C° 0 mm 3 mps 714 mmHg 39%
    14:00 +21°C° 0 mm 4 mps 714 mmHg 37%
    15:00 +21°C° 0.1 mm 5 mps 715 mmHg 37%
    16:00 +20°C° 0.1 mm 6 mps 715 mmHg 37%
    17:00 +18°C° 0.1 mm 7 mps 715 mmHg 37%
    18:00 +17°C° 0 mm 6 mps 716 mmHg 40%
    19:00 +16°C° 0 mm 5 mps 717 mmHg 44%
    20:00 +15°C° 0 mm 4 mps 717 mmHg 47%
    21:00 +16°C° 0.1 mm 3 mps 717 mmHg 51%
    22:00 +14°C° 0.1 mm 3 mps 718 mmHg 54%
    23:00 +15°C° 0.1 mm 2 mps 718 mmHg 58%

    Tomorrow, 20 March, Wednesday

    Time Temperature Precipitation Wind Pressure Humidity
    00:00 +14°C° 0.3 mm 2 mps 718 mmHg 62%
    01:00 +14°C° 0.3 mm 2 mps 718 mmHg 66%
    02:00 +14°C° 0.3 mm 2 mps 718 mmHg 70%
    03:00 +13°C° 0.4 mm 1 mps 719 mmHg 73%
    04:00 +13°C° 0.4 mm 1 mps 719 mmHg 75%
    05:00 +13°C° 0.4 mm 1 mps 719 mmHg 77%
    06:00 +13°C° 0.3 mm 2 mps 719 mmHg 76%
    07:00 +13°C° 0.3 mm 2 mps 719 mmHg 75%
    08:00 +13°C° 0.3 mm 2 mps 719 mmHg 75%
    09:00 +14°C° 0 mm 2 mps 719 mmHg 68%
    10:00 +15°C° 0 mm 2 mps 719 mmHg 61%
    11:00 +16°C° 0 mm 2 mps 719 mmHg 54%
    12:00 +18°C° 0 mm 1 mps 718 mmHg 49%
    13:00 +19°C° 0 mm 1 mps 718 mmHg 45%
    14:00 +18°C° 0 mm 0 mps 718 mmHg 41%
    15:00 +18°C° 0 mm 0 mps 718 mmHg 41%
    16:00 +18°C° 0 mm 0 mps 718 mmHg 40%
    17:00 +20°C° 0 mm 1 mps 718 mmHg 40%
    18:00 +19°C° 0.1 mm 1 mps 718 mmHg 42%
    19:00 +19°C° 0.1 mm 1 mps 719 mmHg 43%
    20:00 +19°C° 0.1 mm 1 mps 719 mmHg 45%
    21:00 +18°C° 0.1 mm 1 mps 720 mmHg 47%
    22:00 +16°C° 0.1 mm 1 mps 720 mmHg 48%
    23:00 +16°C° 0.1 mm 1 mps 720 mmHg 50%

    Day after tomorrow, 21 March, Thursday

    Time Temperature Precipitation Wind Pressure Humidity
    00:00 +15°C° 0 mm 1 mps 720 mmHg 51%
    01:00 +15°C° 0 mm 1 mps 720 mmHg 52%
    02:00 +15°C° 0 mm 1 mps 720 mmHg 54%
    03:00 +14°C° 0 mm 1 mps 720 mmHg 55%
    04:00 +14°C° 0 mm 1 mps 720 mmHg 56%
    05:00 +14°C° 0 mm 2 mps 720 mmHg 57%
    06:00 +14°C° 0 mm 2 mps 721 mmHg 55%
    07:00 +14°C° 0 mm 1 mps 721 mmHg 54%
    08:00 +15°C° 0 mm 1 mps 721 mmHg 52%
    09:00 +16°C° 0 mm 1 mps 721 mmHg 49%
    10:00 +18°C° 0 mm 1 mps 721 mmHg 47%
    11:00 +17°C° 0 mm 0 mps 721 mmHg 44%
    12:00 +20°C° 0 mm 1 mps 721 mmHg 41%
    13:00 +20°C° 0 mm 1 mps 721 mmHg 39%
    14:00 +21°C° 0 mm 1 mps 720 mmHg 36%
    15:00 +21°C° 0 mm 1 mps 720 mmHg 36%
    16:00 +21°C° 0 mm 1 mps 720 mmHg 36%
    17:00 +21°C° 0 mm 1 mps 721 mmHg 35%
    18:00 +20°C° 0.1 mm 1 mps 721 mmHg 38%
    19:00 +19°C° 0.1 mm 1 mps 722 mmHg 41%
    20:00 +18°C° 0.1 mm 1 mps 723 mmHg 43%
    21:00 +18°C° 0.1 mm 1 mps 723 mmHg 45%
    22:00 +16°C° 0.1 mm 1 mps 723 mmHg 46%
    23:00 +16°C° 0.1 mm 2 mps 723 mmHg 48%

    22 March, Friday

    Time Temperature Precipitation Wind Pressure Humidity
    00:00 +15°C° 0 mm 2 mps 723 mmHg 48%
    01:00 +15°C° 0 mm 2 mps 723 mmHg 48%
    02:00 +14°C° 0 mm 2 mps 723 mmHg 47%
    03:00 +14°C° 0 mm 2 mps 723 mmHg 47%
    04:00 +13°C° 0 mm 2 mps 723 mmHg 46%
    05:00 +13°C° 0 mm 1 mps 723 mmHg 45%
    06:00 +13°C° 0 mm 2 mps 723 mmHg 43%
    07:00 +14°C° 0 mm 2 mps 723 mmHg 40%
    08:00 +14°C° 0 mm 2 mps 723 mmHg 38%
    09:00 +16°C° 0 mm 2 mps 722 mmHg 33%
    10:00 +18°C° 0 mm 2 mps 721 mmHg 29%
    11:00 +20°C° 0 mm 2 mps 721 mmHg 24%
    12:00 +20°C° 0 mm 2 mps 720 mmHg 22%
    13:00 +21°C° 0 mm 2 mps 720 mmHg 19%
    14:00 +23°C° 0 mm 2 mps 719 mmHg 17%
    15:00 +23°C° 0 mm 2 mps 719 mmHg 17%
    16:00 +23°C° 0 mm 2 mps 719 mmHg 17%
    17:00 +23°C° 0 mm 2 mps 719 mmHg 17%
    18:00 +21°C° 0 mm 2 mps 720 mmHg 21%
    19:00 +20°C° 0 mm 2 mps 720 mmHg 25%
    20:00 +19°C° 0 mm 1 mps 721 mmHg 28%
    21:00 +19°C° 0 mm 1 mps 721 mmHg 30%
    22:00 +17°C° 0 mm 2 mps 721 mmHg 31%
    23:00 +16°C° 0 mm 2 mps 721 mmHg 33%

    23 March, Saturday

    Time Temperature Precipitation Wind Pressure Humidity
    00:00 +16°C° 0 mm 2 mps 721 mmHg 33%
    01:00 +15°C° 0 mm 1 mps 721 mmHg 34%
    02:00 +15°C° 0 mm 1 mps 720 mmHg 34%
    03:00 +15°C° 0 mm 1 mps 720 mmHg 35%
    04:00 +14°C° 0 mm 1 mps 720 mmHg 37%
    05:00 +14°C° 0 mm 1 mps 720 mmHg 38%
    06:00 +14°C° 0 mm 1 mps 720 mmHg 41%
    07:00 +14°C° 0 mm 2 mps 721 mmHg 44%
    08:00 +14°C° 0 mm 2 mps 721 mmHg 47%
    09:00 +15°C° 0 mm 2 mps 721 mmHg 44%
    10:00 +17°C° 0 mm 3 mps 721 mmHg 41%
    11:00 +18°C° 0 mm 3 mps 721 mmHg 38%
    12:00 +19°C° 0 mm 3 mps 720 mmHg 33%
    13:00 +19°C° 0 mm 3 mps 720 mmHg 29%
    14:00 +20°C° 0 mm 2 mps 720 mmHg 25%
    15:00 +20°C° 0 mm 2 mps 720 mmHg 25%
    16:00 +20°C° 0 mm 2 mps 720 mmHg 25%
    17:00 +21°C° 0 mm 1 mps 720 mmHg 25%
    18:00 +20°C° 0 mm 1 mps 721 mmHg 28%
    19:00 +20°C° 0 mm 1 mps 721 mmHg 31%
    20:00 +19°C° 0 mm 1 mps 722 mmHg 34%
    21:00 +18°C° 0 mm 1 mps 722 mmHg 36%
    22:00 +16°C° 0 mm 2 mps 722 mmHg 38%
    23:00 +15°C° 0 mm 2 mps 722 mmHg 41%

    24 March, Sunday

    Time Temperature Precipitation Wind Pressure Humidity
    00:00 +15°C° 0 mm 2 mps 722 mmHg 41%
    01:00 +14°C° 0 mm 2 mps 721 mmHg 42%
    02:00 +14°C° 0 mm 2 mps 721 mmHg 42%
    03:00 +13°C° 0 mm 2 mps 721 mmHg 43%
    04:00 +13°C° 0 mm 2 mps 721 mmHg 43%
    05:00 +13°C° 0 mm 2 mps 720 mmHg 43%
    06:00 +13°C° 0 mm 1 mps 720 mmHg 41%
    07:00 +14°C° 0 mm 1 mps 720 mmHg 39%
    08:00 +15°C° 0 mm 1 mps 720 mmHg 37%
    09:00 +16°C° 0 mm 1 mps 720 mmHg 33%
    10:00 +19°C° 0 mm 1 mps 720 mmHg 29%
    11:00 +19°C° 0 mm 0 mps 720 mmHg 26%
    12:00 +22°C° 0 mm 1 mps 719 mmHg 24%
    13:00 +22°C° 0 mm 1 mps 719 mmHg 22%
    14:00 +23°C° 0 mm 1 mps 719 mmHg 21%
    15:00 +23°C° 0 mm 1 mps 719 mmHg 20%
    16:00 +23°C° 0 mm 2 mps 719 mmHg 20%
    17:00 +23°C° 0 mm 2 mps 719 mmHg 19%
    18:00 +21°C° 0 mm 2 mps 720 mmHg 22%
    19:00 +20°C° 0 mm 3 mps 720 mmHg 24%
    20:00 +19°C° 0 mm 3 mps 721 mmHg 26%
    21:00 +18°C° 0 mm 3 mps 721 mmHg 28%
    22:00 +17°C° 0 mm 3 mps 721 mmHg 29%
    23:00 +16°C° 0 mm 3 mps 721 mmHg 31%
    Show more